Starlink 30254

operational
NORAD ID: 57533 Int'l Des: 2023-115 Owner: SPXS Country: US Constellation: starlink
LEOCIRCULAR

About Starlink 30254

Description loading...

Live Position

Loading 3D Globe...

Upcoming Passes

Altitude History

Altitude vs Time

uPlot chart will show altitude changes over time

Two-Line Element Set

1 57533U 23115N 26020.26194594 .00004097 00000-0 15821-3 0 9995
2 57533 43.0003 16.6532 0001006 267.9056 92.1681 15.27599120137953
Epoch: Jan 20, 2026 • Age: 13 hours

Current Status

Altitude 486.8 km
Velocity 7.63 km/s
Sub-Earth Point 43.14°N, 57.02°E
Launch Date Aug 8, 2023
Age 2.4 years
Type internet

Technical Details

Classification Payload
Mass 730.00 kg
Dry Mass 700.00 kg
Total Mass 730.00 kg
Length 0.30 m
Diameter 4.10 m
Span 29.00 m
Shape Box + pan
Manufacturer SPXS
Bus Type Starlink V2M
Phase Status In Orbit
Owner/State SPXS/US

Large Constellations

Loading constellations...